Terminal Aerodrome Forecast
Issued by NWS Grand Forks, ND

Home | Current Version | Previous Version | Graphics & Text | Print | Product List | Glossary On
Versions: 1 2 3 4 5 6 7 8 9 10 11 12 13 14 15 16 17 18
000
FTUS43 KFGF 041602 AAA
TAFFAR
TAF AMD
KFAR 041602Z 0416/0512 16013G20KT P6SM BKN025
     FM041800 16013G18KT P6SM VCTS BKN050CB
      TEMPO 0418/0420 -TSRA BKN035CB
     FM042200 17012KT P6SM BKN050=

USA.gov is the U.S. government's official web portal to all federal, state and local government web resources and services.